Hailey, ID

7:18 AM MDT on June 28, 2017 (GMT -0600)
Friedman Memorial

Weather History for KSUN - March, 2013

Change the Weather History Date:

Thursday, March 21, 2013

  Actual Average Record
Temperature  
Mean Temperature 32 °F -  
Max Temperature 37 °F 48 °F 69 °F (2004)
Min Temperature 24 °F 26 °F 19 °F (2008)
Degree Days  
Heating Degree Days 34    
Moisture  
Dew Point 14 °F    
Average Humidity 47    
Maximum Humidity 81    
Minimum Humidity 26    
Precipitation  
Precipitation 0.00 in - - ()
Sea Level Pressure  
Sea Level Pressure 29.82 in    
Wind  
Wind Speed 10 mph (WNW)    
Max Wind Speed 23 mph    
Max Gust Speed 31 mph    
Visibility 10 miles    
Events      
Averages and records for this station are not official NWS values.
T = Trace of Precipitation, MM = Missing Value Source: NWS Daily Summary

Daily Weather History Graph

Daily Weather History Graph

Search for Another Location

Airport or City:

Trip Planner

Search our weather history database for the weather conditions in past years. The results will help you decide how hot, cold, wet, or windy it might be!

Date:

Astronomy

Mar. 21, 2013 Rise Set
Actual Time 7:38 AM MDT 7:51 PM MDT
Civil Twilight 7:09 AM MDT 8:19 PM MDT
Nautical Twilight 6:35 AM MDT 8:53 PM MDT
Astronomical Twilight 6:01 AM MDT 9:27 PM MDT
Moon 2:16 PM MDT (3/21) 4:11 AM MDT (3/21)
Length of Visible Light 13h 10m
Length of Day
12h 13m
Waxing Gibbous, 69% of the Moon is Illuminated
Mar 21
Waxing Gibbous
Mar 27
Full
Apr 2
Last Quarter
Apr 10
New
Apr 18
First Quarter

Hourly Weather History & Observations

Time (MDT) Temp. Windchill Dew Point Humidity Pressure Visibility Wind Dir Wind Speed Gust Speed Precip Events Conditions
12:15 AM 37.4 °F 28.9 °F 32.0 °F 81% 29.75 in 10.0 mi NNW 13.8 mph 23.0 mph N/A   Overcast
12:35 AM 37.4 °F 28.9 °F 28.4 °F 70% 29.75 in 10.0 mi NW 13.8 mph 18.4 mph N/A   Overcast
12:55 AM 37.4 °F 30.8 °F 23.0 °F 56% 29.75 in 10.0 mi WNW 9.2 mph - N/A   Overcast
1:15 AM 37.4 °F 31.4 °F 23.0 °F 56% 29.73 in 10.0 mi WNW 8.1 mph - N/A   Overcast
1:35 AM 35.6 °F 29.9 °F 24.8 °F 65% 29.73 in 10.0 mi WNW 6.9 mph - N/A   Overcast
1:55 AM 37.4 °F 30.8 °F 21.2 °F 52% 29.73 in 10.0 mi NW 9.2 mph 16.1 mph N/A   Overcast
2:15 AM 35.6 °F 28.6 °F 21.2 °F 56% 29.71 in 10.0 mi WNW 9.2 mph - N/A   Mostly Cloudy
2:35 AM 35.6 °F 29.9 °F 21.2 °F 56% 29.72 in 10.0 mi West 6.9 mph - N/A   Mostly Cloudy
3:15 AM 33.8 °F 26.4 °F 19.4 °F 56% 29.72 in 10.0 mi West 9.2 mph - N/A   Clear
3:35 AM 33.8 °F 27.0 °F 19.4 °F 56% 29.73 in 10.0 mi West 8.1 mph - N/A   Clear
3:55 AM 33.8 °F 24.3 °F 17.6 °F 52% 29.75 in 10.0 mi West 13.8 mph 23.0 mph N/A   Clear
4:15 AM 33.8 °F 21.6 °F 12.2 °F 41% 29.75 in 10.0 mi WNW 23.0 mph 31.1 mph N/A   Clear
4:35 AM 33.8 °F 22.8 °F 10.4 °F 38% 29.75 in 10.0 mi WNW 18.4 mph 25.3 mph N/A   Clear
4:55 AM 32.0 °F 25.6 °F 10.4 °F 41% 29.76 in 10.0 mi NW 6.9 mph 17.3 mph N/A   Clear
5:15 AM 32.0 °F 24.2 °F 10.4 °F 41% 29.77 in 10.0 mi WNW 9.2 mph - N/A   Clear
5:35 AM 32.0 °F 23.6 °F 12.2 °F 44% 29.77 in 10.0 mi WNW 10.4 mph - N/A   Clear
5:55 AM 32.0 °F 28.7 °F 12.2 °F 44% 29.79 in 10.0 mi NNW 3.5 mph - N/A   Clear
6:15 AM 32.0 °F 23.6 °F 12.2 °F 44% 29.79 in 10.0 mi WNW 10.4 mph 16.1 mph N/A   Clear
6:35 AM 32.0 °F 24.8 °F 12.2 °F 44% 29.80 in 10.0 mi West 8.1 mph - N/A   Clear
6:47 AM 30.2 °F 23.4 °F 10.4 °F 44% 29.80 in 10.0 mi WNW 6.9 mph - N/A   Clear
6:55 AM 32.0 °F 26.4 °F 12.2 °F 44% 29.81 in 10.0 mi WNW 5.8 mph - N/A   Clear
7:47 AM 30.2 °F 24.3 °F 12.2 °F 47% 29.84 in 10.0 mi WNW 5.8 mph - N/A   Clear
8:50 AM 30.2 °F 20.8 °F 12.2 °F 47% 29.86 in 10.0 mi West 11.5 mph - N/A   Clear
9:47 AM 30.2 °F 22.6 °F 8.6 °F 40% 29.89 in 10.0 mi West 8.1 mph - N/A   Clear
11:47 AM 33.8 °F 27.7 °F 5.0 °F 30% 29.90 in 10.0 mi WNW 6.9 mph - N/A   Partly Cloudy
12:50 PM 35.6 °F 27.5 °F 12.2 °F 38% 29.89 in 10.0 mi SW 11.5 mph 17.3 mph N/A   Scattered Clouds
1:47 PM 37.4 °F 30.3 °F 15.8 °F 41% 29.88 in 10.0 mi SW 10.4 mph 20.7 mph N/A   Scattered Clouds
2:47 PM 37.4 °F 28.2 °F 10.4 °F 33% 29.87 in 10.0 mi SW 16.1 mph 24.2 mph N/A   Partly Cloudy
3:55 PM 37.4 °F 28.5 °F 6.8 °F 28% 29.88 in 10.0 mi West 15.0 mph 20.7 mph N/A   Partly Cloudy
4:47 PM 37.4 °F 28.9 °F 5.0 °F 26% 29.88 in 10.0 mi West 13.8 mph 23.0 mph N/A   Partly Cloudy
5:47 PM 35.6 °F 28.0 °F 6.8 °F 30% 29.90 in 10.0 mi West 10.4 mph 20.7 mph N/A   Partly Cloudy
6:47 PM 33.8 °F 23.5 °F 6.8 °F 32% 29.91 in 10.0 mi West 16.1 mph - N/A   Scattered Clouds
7:47 PM 30.2 °F 22.6 °F 8.6 °F 40% 29.92 in 10.0 mi West 8.1 mph - N/A   Partly Cloudy
8:47 PM 28.4 °F 19.1 °F 10.4 °F 47% 29.93 in 10.0 mi WSW 10.4 mph - N/A   Scattered Clouds
9:47 PM 28.4 °F 23.3 °F 10.4 °F 47% 29.95 in 10.0 mi West 4.6 mph - N/A   Clear
10:47 PM 26.6 °F - 10.4 °F 51% 29.95 in 10.0 mi Calm Calm - N/A   Clear
11:15 PM 26.6 °F 21.2 °F 12.2 °F 55% 29.95 in 10.0 mi NE 4.6 mph - N/A   Clear
11:35 PM 26.6 °F - 12.2 °F 55% 29.94 in 10.0 mi Calm Calm - N/A   Clear
11:55 PM 24.8 °F 19.1 °F 12.2 °F 59% 29.94 in 10.0 mi North 4.6 mph - N/A   Clear